{"data":{"norad_id":62623,"intl_designator":"2025-009Q","name":"OTTER","alt_names":[],"object_type":"PAYLOAD","status":"ACTIVE","operator":null,"country":"GER","launch_date":"2025-01-14","launch_site_code":"AFWTR","launch_vehicle":null,"mission":null,"orbit_class":"UNKNOWN","rcs_meters":null,"size_class":null,"mass_kg":null,"dimensions":null,"purposes":[],"wikipedia_slug":null,"has_3d_model":false,"image_url":null,"decayed_at":null,"tle_current":{"epoch":"2026-05-25T04:17:20.599296Z","epoch_age_seconds":70140,"freshness":"FRESH","line1":"1 62623U 25009Q   26145.17871064  .00009798  00000+0  34645-3 0  9994","line2":"2 62623  97.4027 227.4259 0005460  48.7968 311.3742 15.29364737 75402","mean_motion":15.29364737,"eccentricity":0.000546,"inclination_deg":97.4027,"raan_deg":227.4259,"arg_perigee_deg":48.7968,"mean_anomaly_deg":311.3742,"bstar":0.00034645,"rev_number":7540,"period_min":94.156741368622,"perigee_km":473.96685662507,"apogee_km":481.45344171196,"semimajor_km":6855.8471491685,"source":"CELESTRAK","updated_at":"2026-05-25T13:38:03.130134Z"}}}